Flag for India Weather past 2 weeks in New Okhla Industrial Development Authority, Uttar Pradesh, India

Now
95 °F

Broken clouds.


Feels Like: 103 °F
Forecast: 78 / 93 °F
Wind: 9 mph from East

Location: New Delhi Palam Airport

Current Time: Jun 30, 2015 at 2:28:25 PM

Latest Report: Jun 30, 2015 at 1:30 PM


Visibility: 2 mi

Pressure: 29.65 "Hg

Humidity: 47%

Dew point: 72 °F

Location of New Okhla Industrial Development AuthorityLocation

Historic Weather in New Okhla Industrial Development Authority — Graph

°F

New Okhla Industrial Development Authority temperature yesterday

Maximum temperature yesterday: 95 °F (at 3:00 PM)
Minimum temperature yesterday: 81 °F (at 7:30 AM)
Average temperature yesterday: 89 °F

Past Weeks' High & Low Weather Summary

 TemperatureHumidityPressure
High108 °F (Jun 19, 1:30 PM)94% (Jun 26, 2:30 AM)29.74 "Hg (Jun 26, 2:30 AM)
Low73 °F (Jun 25, 3:30 AM)25% (Jun 18, 3:00 PM)29.36 "Hg (Jun 22, 5:30 PM)
Average90 °F57%29.52 "Hg
* Reported Jun 15 1:00 PM — Jun 30 12:30 PM, New Okhla Industrial Development Authority, Weather by CustomWeather, © 2015

Note: Actual official high and low records may vary slightly from our data, if they occured in-between our weather recording intervals... More about our weather records

Advertising

New Okhla Industrial Development Authority weather history for previous 24 hours

 ConditionsComfort  
Time TempWeatherWind HumidityBarometerVisibility
12:30 PM
Tue, Jun 30
95 °FBroken clouds.9 mph47%29.68 "Hg2 mi
12:00 PM91 °FBroken clouds.6 mph52%29.68 "Hg2 mi
11:30 AM91 °FBroken clouds.5 mph52%29.71 "Hg2 mi
11:00 AM90 °FBroken clouds.7 mph55%29.71 "Hg2 mi
10:30 AM90 °FBroken clouds.5 mph55%29.71 "Hg2 mi
10:00 AM88 °FBroken clouds.5 mph59%29.71 "Hg2 mi
9:30 AM88 °FBroken clouds.6 mph59%29.71 "Hg2 mi
9:00 AM86 °FBroken clouds.7 mph62%29.71 "Hg2 mi
8:30 AM84 °FBroken clouds.7 mph66%29.71 "Hg2 mi
8:00 AM84 °FBroken clouds.6 mph66%29.71 "Hg2 mi
7:30 AM84 °FScattered clouds.8 mph66%29.68 "Hg2 mi
7:00 AM82 °FScattered clouds.9 mph66%29.68 "Hg2 mi
6:30 AM82 °FScattered clouds.8 mph66%29.65 "Hg2 mi
6:00 AM82 °FScattered clouds.8 mph70%29.65 "Hg2 mi
5:30 AM82 °FPassing clouds.7 mph70%29.65 "Hg2 mi
5:00 AM82 °FPassing clouds.8 mph70%29.65 "Hg2 mi
4:30 AM82 °FPassing clouds.5 mph70%29.62 "Hg2 mi
4:00 AM82 °FPassing clouds.6 mph70%29.62 "Hg2 mi
3:00 AM82 °FPassing clouds.3 mph70%29.65 "Hg2 mi
2:30 AM82 °FPassing clouds.6 mph70%29.65 "Hg2 mi
2:00 AM82 °FPassing clouds.9 mph70%29.65 "Hg2 mi
1:30 AM82 °FPassing clouds.5 mph70%29.71 "Hg2 mi
1:00 AM84 °FPassing clouds.7 mph62%29.71 "Hg2 mi
12:30 AM84 °FPassing clouds.9 mph62%29.74 "Hg2 mi
12:00 AM84 °FPassing clouds.7 mph66%29.74 "Hg2 mi
11:30 PM
Mon, Jun 29
84 °FPassing clouds.9 mph66%29.71 "Hg2 mi
11:00 PM86 °FPassing clouds.8 mph62%29.74 "Hg2 mi
10:30 PM86 °FPassing clouds.6 mph62%29.71 "Hg2 mi
10:00 PM86 °FPassing clouds.5 mph62%29.71 "Hg2 mi
9:30 PM86 °FPassing clouds.8 mph59%29.68 "Hg2 mi
9:00 PM88 °FPassing clouds.9 mph59%29.68 "Hg2 mi
8:30 PM88 °FPassing clouds.9 mph59%29.68 "Hg2 mi
8:00 PM88 °FPassing clouds.9 mph62%29.68 "Hg2 mi
7:30 PM90 °FScattered clouds.12 mph55%29.68 "Hg2 mi
7:00 PM91 °FScattered clouds.12 mph52%29.65 "Hg2 mi
6:30 PM91 °FScattered clouds.13 mph52%29.65 "Hg2 mi
6:00 PM93 °FScattered clouds.14 mph49%29.65 "Hg2 mi
5:30 PM93 °FScattered clouds.13 mph49%29.62 "Hg2 mi
4:30 PM95 °FScattered clouds.9 mph47%29.65 "Hg2 mi
4:00 PM95 °FScattered clouds.9 mph47%29.65 "Hg2 mi
3:30 PM95 °FScattered clouds.9 mph47%29.65 "Hg2 mi
3:00 PM95 °FScattered clouds.9 mph47%29.68 "Hg2 mi
2:30 PM93 °FScattered clouds.9 mph49%29.68 "Hg2 mi
2:00 PM93 °FScattered clouds.9 mph49%29.68 "Hg2 mi
Weather by CustomWeather, © 2015

See weather overviewHow to use our weather pages